Wind_Speed
77 78 80 83 87 91 95 99 104 106 105 105 107 106 106 104 101 97 93 89 86 84 82 79 77 75 74 73 74 75 78 81 83 86 91 94 95 93
78 81 84 88 91 95 99 103 108 112 114 110 107 103 98 94 89 88 87 85 81 77 74 72 70 68 66 66 66 68 71 75 79 80 83 88 94 98
81 84 88 92 96 100 104 107 109 110 112 107 100 94 88 83 81 80 80 77 74 70 68 66 64 63 62 62 63 64 66 70 75 77 78 81 87 96
84 89 93 97 101 105 107 107 106 104 103 100 92 86 81 79 76 72 70 68 67 64 63 61 60 61 62 61 61 61 63 67 73 77 76 76 78 83
90 94 99 103 105 106 105 102 99 96 92 90 86 82 78 73 69 65 62 60 59 59 58 57 58 59 60 60 60 60 61 64 70 75 75 73 71 72
95 100 103 104 104 101 97 94 91 88 85 84 82 78 72 66 64 60 56 52 51 52 53 53 55 56 56 56 57 57 58 61 66 72 73 70 67 65
100 102 102 100 96 92 88 86 84 83 82 81 76 71 66 62 58 56 53 47 43 46 47 46 48 48 47 48 48 49 51 55 62 69 72 69 65 62
102 100 97 91 86 82 80 79 80 81 79 74 69 65 61 57 54 51 48 43 37 36 39 36 38 37 37 37 38 40 43 48 56 65 69 67 64 60
99 93 87 81 78 77 76 76 76 73 70 67 64 60 56 52 49 44 39 35 30 28 28 24 27 28 28 28 29 31 34 40 49 59 65 64 61 59
90 83 79 75 74 76 76 74 70 64 61 59 57 54 51 47 43 38 31 25 21 23 24 20 19 20 20 22 24 24 24 31 42 53 60 61 59 56
79 76 75 74 75 76 75 69 61 55 52 50 48 46 44 41 39 33 28 22 16 17 22 19 16 15 15 17 18 16 15 22 34 45 53 55 55 54
74 72 73 75 74 71 66 59 52 47 43 39 38 37 36 35 34 31 27 21 15 14 18 17 16 13 10 13 11 6 5 14 25 37 45 50 52 53
75 73 72 71 67 60 55 50 45 40 35 32 30 30 30 30 30 29 27 22 17 14 15 15 14 11 7 5 5 4 4 10 19 29 37 43 48 51
76 73 69 62 55 49 44 40 36 32 29 27 27 27 27 27 26 25 24 22 19 15 13 13 11 8 5 1 3 6 10 13 16 20 26 32 38 43
72 66 58 50 44 39 35 32 28 26 25 25 26 25 24 22 21 20 20 20 18 16 12 10 8 4 1 5 8 11 15 19 20 21 22 25 28 32
60 52 45 39 35 31 28 26 25 25 25 24 22 20 19 19 18 18 17 17 16 15 12 9 6 4 5 9 13 16 20 22 23 24 24 25 27 28
49 41 36 31 27 25 23 23 23 23 22 20 19 18 18 17 17 17 17 17 15 14 12 10 8 8 11 14 18 21 23 25 25 25 25 25 26 27
40 34 29 25 22 19 19 20 20 19 18 17 17 16 16 16 16 17 17 17 17 15 13 12 11 11 14 16 20 23 25 25 25 24 24 23 25 26
34 28 24 21 18 18 18 17 17 17 16 16 15 15 15 15 15 16 16 16 17 16 15 13 13 13 15 17 21 23 24 25 23 22 22 22 23 25
28 23 19 17 17 16 16 16 16 16 16 16 15 15 14 14 14 14 14 15 15 15 14 13 13 13 15 18 20 22 23 23 22 21 21 21 23 25
21 18 16 15 15 15 15 15 16 16 16 16 15 15 14 13 12 12 12 12 13 13 13 12 12 12 14 16 18 19 21 22 22 22 22 22 23 24
16 15 14 14 14 15 16 16 17 17 17 17 16 15 13 12 11 11 10 9 10 10 10 10 10 11 12 14 16 18 19 20 21 22 23 23 24 24
14 13 13 14 15 16 17 17 18 18 18 17 16 15 13 12 11 10 9 8 7 7 6 6 7 9 10 12 14 16 18 19 20 20 21 22 22 23
Wind_Direction
305 305 305 305 305 305 305 305 305 304 303 303 303 303 301 300 298 296 294 292 290 288 285 282 279 276 272 269 265 260 255 250 246 244 241 237 232 228
307 306 306 306 306 306 306 306 306 306 305 305 305 303 301 300 298 297 295 294 292 289 286 283 280 276 272 268 265 260 255 250 245 242 241 238 234 229
308 307 307 307 307 307 307 307 307 306 306 306 305 304 303 301 299 297 295 293 291 289 286 283 280 276 273 269 265 260 255 249 243 239 238 237 235 231
309 309 309 309 309 308 308 307 307 307 306 307 307 306 305 303 301 298 295 293 291 289 286 283 280 277 274 270 266 262 256 249 242 237 235 235 235 234
310 310 310 310 309 309 308 308 307 307 307 308 308 308 307 305 302 299 296 294 292 290 287 284 281 278 275 271 267 263 256 248 241 235 232 232 233 232
311 311 311 310 310 309 308 308 308 308 309 309 309 309 308 307 304 302 299 297 294 291 288 285 283 280 277 273 269 263 256 247 239 232 228 228 228 228
312 312 311 310 309 309 309 310 310 311 311 311 310 310 310 308 306 304 304 301 298 293 288 287 286 284 281 277 272 264 256 245 235 228 224 224 224 224
313 312 311 310 309 310 310 311 312 312 312 311 311 312 311 310 309 309 308 305 300 293 292 293 290 290 286 282 276 267 255 242 231 223 220 220 220 220
312 312 311 311 311 311 311 311 312 312 311 311 312 312 312 311 312 313 311 308 307 301 300 301 296 297 294 289 281 271 257 240 227 220 217 216 217 217
313 313 312 313 312 312 312 313 313 313 312 313 312 312 313 315 317 319 319 317 312 308 309 313 308 305 300 296 289 278 258 236 223 216 214 214 214 214
313 313 314 314 314 313 313 313 314 313 313 313 312 313 315 318 321 324 326 324 316 308 309 316 320 315 310 303 297 287 257 230 218 213 212 213 213 212
315 315 315 314 314 313 313 314 315 316 316 315 314 314 317 320 322 326 330 330 324 309 306 313 319 318 314 313 318 311 244 213 209 209 211 212 213 213
317 317 316 315 314 314 314 316 318 320 321 321 321 320 321 322 323 324 326 329 327 316 311 314 315 318 321 323 345 38 137 179 193 201 206 210 212 213
319 318 317 316 316 316 317 319 322 324 326 327 327 326 325 324 325 326 328 330 330 326 317 317 315 316 320 344 73 91 119 138 157 175 190 200 206 209
319 319 318 318 319 319 321 324 328 330 331 331 329 330 332 334 337 337 338 339 340 340 335 332 332 334 33 125 114 112 121 127 136 147 161 173 183 191
320 320 321 322 323 326 329 332 334 336 336 337 340 343 347 350 353 355 355 355 354 354 359 4 17 56 110 129 127 124 127 129 133 139 146 156 165 173
324 325 327 328 330 332 334 337 338 340 343 348 352 355 358 3 7 11 12 13 15 17 25 37 55 88 112 125 130 131 131 132 134 137 142 148 155 163
328 331 334 335 339 342 342 342 345 350 354 358 1 5 9 12 16 21 23 26 30 35 42 53 71 98 116 127 131 133 135 136 138 141 145 150 157 161
333 337 340 344 348 349 350 352 355 358 2 4 6 9 12 16 20 23 27 31 36 42 50 62 78 100 118 128 134 136 139 143 145 148 149 153 157 159
337 342 348 351 353 356 359 2 4 5 5 6 6 7 9 13 18 24 28 34 39 46 54 67 83 100 118 130 137 141 144 149 153 156 158 160 164 165
344 351 355 357 1 6 8 10 9 7 5 4 4 4 6 9 15 21 27 33 41 48 56 68 85 105 122 133 141 148 151 154 158 162 166 170 172 175
354 359 3 8 12 13 11 8 5 3 2 0 360 359 -0 2 8 14 21 30 40 48 59 71 87 105 124 139 148 155 160 164 166 169 173 176 178 180
2 8 14 18 17 14 12 10 8 6 5 4 3 2 360 360 1 4 8 15 24 36 57 78 97 114 128 141 153 161 168 173 176 179 181 183 184 184
Height
5599 5589 5579 5569 5557 5545 5531 5516 5502 5495 5497 5490 5474 5459 5440 5421 5405 5390 5380 5373 5366 5359 5354 5349 5346 5345 5344 5344 5347 5351 5356 5363 5371 5380 5391 5404 5419 5432
5580 5570 5560 5548 5536 5522 5508 5492 5474 5455 5450 5452 5438 5425 5410 5394 5378 5362 5350 5342 5336 5330 5325 5321 5318 5317 5317 5318 5319 5322 5326 5333 5342 5352 5362 5373 5387 5401
5562 5551 5539 5526 5513 5498 5482 5465 5448 5427 5410 5411 5403 5391 5379 5367 5356 5342 5328 5317 5311 5306 5300 5295 5293 5292 5292 5292 5294 5296 5299 5305 5313 5324 5334 5346 5358 5373
5542 5530 5517 5502 5487 5470 5454 5437 5420 5403 5383 5373 5372 5361 5352 5340 5329 5319 5307 5297 5289 5283 5277 5273 5270 5267 5266 5267 5268 5270 5274 5279 5287 5297 5310 5323 5335 5347
5520 5506 5491 5475 5459 5442 5425 5409 5394 5380 5364 5350 5343 5335 5325 5314 5302 5295 5287 5278 5270 5262 5256 5251 5247 5243 5242 5242 5243 5245 5248 5254 5262 5274 5286 5300 5313 5327
5497 5481 5464 5447 5430 5414 5400 5385 5371 5358 5345 5331 5320 5311 5302 5292 5280 5272 5267 5261 5253 5243 5236 5231 5226 5222 5220 5219 5219 5220 5223 5228 5237 5250 5265 5280 5294 5308
5474 5456 5438 5421 5404 5389 5375 5362 5349 5336 5323 5311 5300 5290 5281 5272 5262 5253 5247 5243 5237 5226 5219 5216 5209 5205 5202 5199 5197 5198 5200 5205 5214 5227 5244 5261 5277 5292
5448 5432 5415 5398 5383 5371 5358 5344 5330 5316 5302 5291 5281 5272 5263 5254 5246 5238 5230 5224 5221 5215 5205 5203 5196 5192 5188 5185 5182 5180 5181 5185 5194 5208 5226 5244 5261 5277
5422 5407 5393 5378 5364 5351 5341 5330 5317 5302 5287 5275 5265 5257 5248 5241 5233 5227 5219 5212 5207 5201 5195 5194 5188 5183 5179 5175 5171 5168 5168 5172 5181 5195 5213 5231 5248 5264
5398 5383 5371 5360 5346 5332 5321 5311 5300 5288 5275 5265 5254 5245 5237 5229 5222 5215 5209 5205 5200 5194 5188 5186 5183 5178 5174 5169 5164 5161 5160 5164 5173 5186 5203 5221 5238 5254
5381 5366 5352 5340 5328 5314 5301 5292 5284 5275 5265 5255 5245 5236 5228 5221 5213 5208 5203 5198 5195 5190 5184 5180 5178 5174 5170 5165 5161 5157 5157 5161 5170 5182 5198 5215 5230 5245
5366 5352 5338 5323 5310 5297 5285 5276 5269 5263 5255 5247 5239 5230 5223 5216 5209 5203 5197 5193 5190 5186 5182 5177 5174 5171 5169 5165 5161 5158 5158 5162 5169 5180 5194 5208 5222 5236
5345 5334 5321 5306 5293 5282 5272 5264 5258 5252 5245 5239 5232 5226 5219 5213 5206 5200 5195 5189 5186 5183 5179 5175 5172 5169 5167 5165 5163 5162 5162 5164 5170 5179 5190 5203 5215 5229
5324 5313 5302 5290 5279 5270 5263 5256 5250 5245 5239 5233 5227 5221 5216 5210 5204 5198 5192 5187 5183 5179 5176 5173 5171 5169 5167 5166 5166 5166 5167 5170 5174 5181 5190 5200 5210 5222
5307 5296 5285 5276 5269 5262 5256 5250 5245 5240 5235 5230 5224 5218 5212 5207 5201 5196 5191 5186 5181 5177 5174 5172 5170 5169 5168 5169 5169 5171 5173 5176 5181 5187 5194 5201 5210 5220
5294 5284 5275 5268 5261 5255 5250 5246 5241 5236 5231 5226 5221 5216 5211 5206 5201 5196 5191 5186 5182 5178 5175 5172 5171 5170 5171 5172 5174 5176 5179 5183 5188 5193 5199 5206 5214 5223
5282 5275 5268 5262 5257 5252 5248 5243 5239 5234 5229 5224 5220 5215 5211 5206 5202 5197 5192 5188 5183 5179 5177 5175 5174 5174 5175 5176 5179 5182 5186 5190 5195 5201 5207 5213 5220 5227
5275 5268 5263 5258 5254 5250 5246 5242 5237 5233 5228 5224 5220 5216 5212 5208 5204 5199 5195 5191 5187 5183 5180 5179 5178 5178 5180 5182 5185 5188 5192 5197 5202 5207 5212 5219 5225 5231
5270 5265 5260 5256 5252 5248 5245 5241 5237 5233 5229 5225 5221 5217 5213 5210 5206 5202 5199 5195 5191 5188 5185 5184 5183 5184 5185 5188 5190 5193 5198 5202 5207 5212 5218 5223 5229 5235
5268 5263 5259 5255 5252 5248 5245 5241 5237 5233 5230 5226 5222 5218 5215 5211 5208 5205 5202 5199 5196 5193 5191 5189 5189 5189 5190 5193 5196 5199 5202 5207 5212 5217 5222 5227 5233 5239
5267 5263 5259 5256 5252 5249 5245 5242 5238 5235 5231 5227 5223 5220 5216 5213 5210 5207 5205 5202 5199 5197 5196 5195 5194 5194 5196 5197 5200 5204 5207 5210 5215 5220 5225 5230 5236 5242
5267 5263 5260 5256 5253 5250 5246 5243 5239 5235 5232 5228 5224 5220 5217 5214 5211 5209 5207 5205 5203 5201 5200 5199 5198 5199 5200 5201 5204 5207 5210 5214 5218 5222 5226 5232 5237 5243
5268 5264 5261 5258 5255 5251 5248 5244 5240 5236 5232 5228 5225 5221 5218 5215 5212 5210 5208 5206 5204 5203 5202 5202 5202 5202 5203 5204 5206 5209 5212 5216 5220 5224 5228 5233 5238 5244